Time,TemperatureF,DewpointF,PressureIn,WindDirection,WindDirectionDegrees,WindSpeedMPH,WindSpeedGustMPH,Humidity,HourlyPrecipIn,Conditions,Clouds,dailyrainin,SoftwareType,DateUTC
2011-08-03 00:03:00,72.3,53.1,30.02,SSE,157,0.0,0.4,51,0.00,,,0.00,open2300-1.11,2011-08-03 06:03:00,
2011-08-03 00:13:00,72.0,52.8,30.01,SE,135,0.0,0.0,51,0.00,,,0.00,open2300-1.11,2011-08-03 06:13:00,
2011-08-03 00:23:00,71.8,52.7,30.01,ESE,112,0.0,0.0,51,0.00,,,0.00,open2300-1.11,2011-08-03 06:23:00,
2011-08-03 00:33:00,71.6,53.0,30.02,SE,135,0.0,0.0,52,0.00,,,0.00,open2300-1.11,2011-08-03 06:33:00,
2011-08-03 00:43:00,71.2,52.7,30.02,ENE,67,3.1,5.6,52,0.00,,,0.00,open2300-1.11,2011-08-03 06:43:00,
2011-08-03 00:53:00,70.9,52.8,30.02,East,90,2.9,5.1,53,0.00,,,0.00,open2300-1.11,2011-08-03 06:53:00,
2011-08-03 01:03:00,70.9,52.8,30.02,SSE,157,1.1,2.9,53,0.00,,,0.00,open2300-1.11,2011-08-03 07:03:00,
2011-08-03 01:13:00,70.3,52.9,30.01,SSE,157,0.0,1.1,54,0.00,,,0.00,open2300-1.11,2011-08-03 07:13:00,
2011-08-03 01:23:00,70.0,52.5,30.02,SSE,157,1.6,1.6,54,0.00,,,0.00,open2300-1.11,2011-08-03 07:23:00,
2011-08-03 01:33:00,69.6,52.7,30.01,SE,135,2.5,2.5,55,0.00,,,0.00,open2300-1.11,2011-08-03 07:33:00,
2011-08-03 01:43:00,69.4,52.5,30.01,SSE,157,0.0,2.5,55,0.00,,,0.00,open2300-1.11,2011-08-03 07:43:00,
2011-08-03 01:53:00,69.3,52.4,30.01,SSE,157,3.6,3.6,55,0.00,,,0.00,open2300-1.11,2011-08-03 07:53:00,
2011-08-03 02:03:00,69.1,52.2,30.01,SE,135,0.0,3.6,55,0.00,,,0.00,open2300-1.11,2011-08-03 08:03:00,
2011-08-03 02:13:00,68.9,52.5,30.01,South,180,2.7,2.7,56,0.00,,,0.00,open2300-1.11,2011-08-03 08:13:00,
2011-08-03 02:23:00,68.7,52.3,30.02,SSE,157,0.0,2.7,56,0.00,,,0.00,open2300-1.11,2011-08-03 08:23:00,
2011-08-03 02:33:00,68.5,52.2,30.01,SE,135,0.0,0.0,56,0.00,,,0.00,open2300-1.11,2011-08-03 08:33:00,
2011-08-03 02:43:00,68.4,52.0,30.02,East,90,0.0,1.1,56,0.00,,,0.00,open2300-1.11,2011-08-03 08:43:00,
2011-08-03 02:53:00,68.2,52.3,30.02,SSE,157,1.1,1.1,57,0.00,,,0.00,open2300-1.11,2011-08-03 08:53:00,
2011-08-03 03:03:00,68.2,52.3,30.01,SSE,157,0.0,1.1,57,0.00,,,0.00,open2300-1.11,2011-08-03 09:03:00,
2011-08-03 03:13:00,67.8,52.0,30.01,SE,135,0.0,0.0,57,0.00,,,0.00,open2300-1.11,2011-08-03 09:13:00,
2011-08-03 03:23:00,67.5,51.7,30.01,ESE,112,0.0,0.9,57,0.00,,,0.00,open2300-1.11,2011-08-03 09:23:00,
2011-08-03 03:33:00,67.1,51.8,30.01,SE,135,0.0,4.5,57,0.00,,,0.00,open2300-1.11,2011-08-03 09:33:00,
2011-08-03 03:43:00,66.9,51.7,30.01,ESE,112,0.2,0.2,58,0.00,,,0.00,open2300-1.11,2011-08-03 09:43:00,
2011-08-03 03:53:00,66.9,51.7,30.02,SSE,157,1.1,1.1,58,0.00,,,0.00,open2300-1.11,2011-08-03 09:53:00,
2011-08-03 04:03:00,66.7,51.5,30.02,ESE,112,1.6,2.9,58,0.00,,,0.00,open2300-1.11,2011-08-03 10:03:00,
2011-08-03 04:13:00,66.7,51.5,30.02,SSE,157,0.0,1.6,58,0.00,,,0.00,open2300-1.11,2011-08-03 10:13:00,
2011-08-03 04:23:00,66.6,51.3,30.02,SSE,157,0.0,1.3,58,0.00,,,0.00,open2300-1.11,2011-08-03 10:23:00,
2011-08-03 04:33:00,66.6,51.3,30.02,East,90,0.0,2.0,58,0.00,,,0.00,open2300-1.11,2011-08-03 10:33:00,
2011-08-03 04:43:00,66.4,51.2,30.02,SE,135,3.8,3.8,58,0.00,,,0.00,open2300-1.11,2011-08-03 10:43:00,
2011-08-03 04:53:00,66.2,51.0,30.02,ESE,112,3.6,3.8,58,0.00,,,0.00,open2300-1.11,2011-08-03 10:53:00,
2011-08-03 05:03:00,66.0,50.8,30.02,East,90,2.2,4.7,58,0.00,,,0.00,open2300-1.11,2011-08-03 11:03:00,
2011-08-03 05:13:00,66.0,50.8,30.02,ESE,112,0.0,5.1,58,0.00,,,0.00,open2300-1.11,2011-08-03 11:13:00,
2011-08-03 05:23:00,65.8,51.1,30.02,ENE,67,0.0,2.7,59,0.00,,,0.00,open2300-1.11,2011-08-03 11:23:00,
2011-08-03 05:33:00,65.7,51.0,30.02,ENE,67,0.0,0.0,59,0.00,,,0.00,open2300-1.11,2011-08-03 11:33:00,
2011-08-03 05:43:00,65.5,50.8,30.02,East,90,0.0,1.3,59,0.00,,,0.00,open2300-1.11,2011-08-03 11:43:00,
2011-08-03 05:53:00,65.5,50.8,30.03,SSE,157,0.0,0.0,59,0.00,,,0.00,open2300-1.11,2011-08-03 11:53:00,
2011-08-03 06:03:00,65.1,50.4,30.03,ESE,112,0.0,1.6,59,0.00,,,0.00,open2300-1.11,2011-08-03 12:03:00,
2011-08-03 06:13:00,65.1,50.4,30.03,ENE,67,2.0,3.1,59,0.00,,,0.00,open2300-1.11,2011-08-03 12:13:00,
2011-08-03 06:23:00,64.8,50.0,30.03,East,90,0.0,2.0,59,0.00,,,0.00,open2300-1.11,2011-08-03 12:23:00,
2011-08-03 06:33:00,64.9,50.2,30.03,SW,225,0.0,1.1,59,0.00,,,0.00,open2300-1.11,2011-08-03 12:33:00,
2011-08-03 06:43:00,64.8,50.0,30.03,ESE,112,1.6,1.6,59,0.00,,,0.00,open2300-1.11,2011-08-03 12:43:00,
2011-08-03 06:53:00,64.6,49.9,30.04,SSE,157,0.0,1.6,59,0.00,,,0.00,open2300-1.11,2011-08-03 12:53:00,
2011-08-03 07:03:00,64.8,50.0,30.04,SSE,157,0.0,0.0,59,0.00,,,0.00,open2300-1.11,2011-08-03 13:03:00,
2011-08-03 07:13:00,64.8,50.0,30.04,East,90,0.0,0.0,59,0.00,,,0.00,open2300-1.11,2011-08-03 13:13:00,
2011-08-03 07:23:00,64.9,50.2,30.04,SE,135,0.0,2.7,59,0.00,,,0.00,open2300-1.11,2011-08-03 13:23:00,
2011-08-03 07:33:00,65.1,50.4,30.04,ESE,112,0.0,0.0,59,0.00,,,0.00,open2300-1.11,2011-08-03 13:33:00,
2011-08-03 07:43:00,65.5,50.8,30.04,SSE,157,0.0,0.0,59,0.00,,,0.00,open2300-1.11,2011-08-03 13:43:00,
2011-08-03 07:53:00,66.0,51.3,30.04,SSE,157,0.0,4.5,59,0.00,,,0.00,open2300-1.11,2011-08-03 13:53:00,
2011-08-03 08:03:00,66.6,51.3,30.04,SSE,157,0.9,0.9,58,0.00,,,0.00,open2300-1.11,2011-08-03 14:03:00,
2011-08-03 08:13:00,67.3,52.0,30.04,ENE,67,1.8,1.8,58,0.00,,,0.00,open2300-1.11,2011-08-03 14:13:00,
2011-08-03 08:23:00,67.8,51.5,30.05,SSE,157,0.0,2.7,56,0.00,,,0.00,open2300-1.11,2011-08-03 14:23:00,
2011-08-03 08:33:00,68.7,52.3,30.05,East,90,0.0,4.9,56,0.00,,,0.00,open2300-1.11,2011-08-03 14:33:00,
2011-08-03 08:43:00,69.4,53.0,30.05,SSE,157,0.0,0.0,56,0.00,,,0.00,open2300-1.11,2011-08-03 14:43:00,
2011-08-03 08:53:00,70.5,53.5,30.05,ENE,67,0.0,1.3,55,0.00,,,0.00,open2300-1.11,2011-08-03 14:53:00,
2011-08-03 09:03:00,71.6,54.0,30.05,ENE,67,0.0,0.0,54,0.00,,,0.00,open2300-1.11,2011-08-03 15:03:00,
2011-08-03 09:13:00,72.1,54.5,30.05,East,90,0.0,1.1,54,0.00,,,0.00,open2300-1.11,2011-08-03 15:13:00,
2011-08-03 09:23:00,72.3,54.1,30.05,East,90,0.0,0.0,53,0.00,,,0.00,open2300-1.11,2011-08-03 15:23:00,
2011-08-03 09:33:00,72.7,55.0,30.05,SSW,202,0.0,0.0,54,0.00,,,0.00,open2300-1.11,2011-08-03 15:33:00,
2011-08-03 09:43:00,73.6,54.8,30.04,South,180,0.0,0.0,52,0.00,,,0.00,open2300-1.11,2011-08-03 15:43:00,
2011-08-03 09:53:00,74.5,55.2,30.05,South,180,0.0,0.0,51,0.00,,,0.00,open2300-1.11,2011-08-03 15:53:00,
2011-08-03 10:03:00,75.4,55.6,30.04,South,180,0.0,0.0,50,0.00,,,0.00,open2300-1.11,2011-08-03 16:03:00,
2011-08-03 10:13:00,75.9,55.4,30.04,SW,225,0.0,0.0,49,0.00,,,0.00,open2300-1.11,2011-08-03 16:13:00,
2011-08-03 10:23:00,76.8,55.6,30.04,WSW,247,0.0,0.0,48,0.00,,,0.00,open2300-1.11,2011-08-03 16:23:00,
2011-08-03 10:33:00,77.7,55.8,30.03,SW,225,0.0,0.0,47,0.00,,,0.00,open2300-1.11,2011-08-03 16:33:00,
2011-08-03 10:43:00,78.3,56.3,30.03,WSW,247,0.0,0.0,47,0.00,,,0.00,open2300-1.11,2011-08-03 16:43:00,
2011-08-03 10:53:00,79.3,56.7,30.03,West,270,0.0,0.0,46,0.00,,,0.00,open2300-1.11,2011-08-03 16:53:00,
2011-08-03 11:03:00,79.7,56.4,30.04,NW,315,0.0,0.0,45,0.00,,,0.00,open2300-1.11,2011-08-03 17:03:00,
2011-08-03 11:13:00,80.4,56.4,30.03,NW,315,0.0,0.0,44,0.00,,,0.00,open2300-1.11,2011-08-03 17:13:00,
2011-08-03 11:23:00,81.1,56.5,30.03,WSW,247,0.0,0.2,43,0.00,,,0.00,open2300-1.11,2011-08-03 17:23:00,
2011-08-03 11:33:00,81.7,56.3,30.02,West,270,0.0,0.0,42,0.00,,,0.00,open2300-1.11,2011-08-03 17:33:00,
2011-08-03 11:43:00,82.2,56.8,30.02,West,270,0.0,0.0,42,0.00,,,0.00,open2300-1.11,2011-08-03 17:43:00,
2011-08-03 11:53:00,83.1,57.0,30.02,WSW,247,0.0,1.1,41,0.00,,,0.00,open2300-1.11,2011-08-03 17:53:00,
2011-08-03 12:03:00,84.0,57.2,30.01,WNW,292,0.0,3.4,40,0.00,,,0.00,open2300-1.11,2011-08-03 18:03:00,
2011-08-03 12:13:00,84.4,56.8,30.01,WNW,292,0.0,0.0,39,0.00,,,0.00,open2300-1.11,2011-08-03 18:13:00,
2011-08-03 12:23:00,84.9,56.4,30.01,WSW,247,0.0,0.0,38,0.00,,,0.00,open2300-1.11,2011-08-03 18:23:00,
2011-08-03 12:33:00,85.6,56.3,30.00,SW,225,0.0,0.0,37,0.00,,,0.00,open2300-1.11,2011-08-03 18:33:00,
2011-08-03 12:43:00,86.2,56.8,29.99,WNW,292,0.0,0.0,37,0.00,,,0.00,open2300-1.11,2011-08-03 18:43:00,
2011-08-03 12:53:00,87.1,56.0,29.99,NNE,22,0.0,0.0,35,0.00,,,0.00,open2300-1.11,2011-08-03 18:53:00,
2011-08-03 13:03:00,87.6,54.8,29.99,NW,315,0.0,1.1,33,0.00,,,0.00,open2300-1.11,2011-08-03 19:03:00,
2011-08-03 13:13:00,88.0,53.5,29.98,NE,45,0.0,0.0,31,0.00,,,0.00,open2300-1.11,2011-08-03 19:13:00,
2011-08-03 13:23:00,88.7,54.1,29.98,West,270,0.0,0.0,31,0.00,,,0.00,open2300-1.11,2011-08-03 19:23:00,
2011-08-03 13:33:00,89.6,53.1,29.97,WNW,292,0.0,0.0,29,0.00,,,0.00,open2300-1.11,2011-08-03 19:33:00,
2011-08-03 13:43:00,90.1,53.5,29.97,NNW,337,0.0,1.3,29,0.00,,,0.00,open2300-1.11,2011-08-03 19:43:00,
2011-08-03 13:53:00,90.3,52.6,29.97,ENE,67,0.0,0.4,28,0.00,,,0.00,open2300-1.11,2011-08-03 19:53:00,
2011-08-03 14:03:00,90.0,52.3,29.97,West,270,0.0,3.4,28,0.00,,,0.00,open2300-1.11,2011-08-03 20:03:00,
2011-08-03 14:13:00,89.2,50.6,29.96,North,0,0.0,0.0,27,0.00,,,0.00,open2300-1.11,2011-08-03 20:13:00,
2011-08-03 14:23:00,89.2,51.7,29.96,WNW,292,0.0,0.2,28,0.00,,,0.00,open2300-1.11,2011-08-03 20:23:00,
2011-08-03 14:33:00,88.7,51.2,29.96,WNW,292,0.0,2.7,28,0.00,,,0.00,open2300-1.11,2011-08-03 20:33:00,
2011-08-03 14:43:00,88.0,50.5,29.95,NNW,337,0.0,1.1,28,0.00,,,0.00,open2300-1.11,2011-08-03 20:43:00,
2011-08-03 14:53:00,87.6,50.2,29.95,WNW,292,0.0,0.0,28,0.00,,,0.00,open2300-1.11,2011-08-03 20:53:00,
2011-08-03 15:03:00,87.1,49.8,29.95,WSW,247,0.0,0.0,28,0.00,,,0.00,open2300-1.11,2011-08-03 21:03:00,
2011-08-03 15:13:00,87.6,51.3,29.94,WSW,247,0.0,3.4,29,0.00,,,0.00,open2300-1.11,2011-08-03 21:13:00,
2011-08-03 15:23:00,88.7,52.2,29.94,WNW,292,0.0,4.2,29,0.00,,,0.00,open2300-1.11,2011-08-03 21:23:00,
2011-08-03 15:33:00,88.7,52.2,29.94,SW,225,0.0,5.4,29,0.00,,,0.00,open2300-1.11,2011-08-03 21:33:00,
2011-08-03 15:43:00,89.4,52.9,29.94,WSW,247,2.0,2.0,29,0.00,,,0.00,open2300-1.11,2011-08-03 21:43:00,
2011-08-03 15:53:00,89.4,52.9,29.93,WSW,247,0.0,4.2,29,0.00,,,0.00,open2300-1.11,2011-08-03 21:53:00,
2011-08-03 16:03:00,90.0,53.4,29.94,North,0,0.0,6.3,29,0.00,,,0.00,open2300-1.11,2011-08-03 22:03:00,
2011-08-03 16:13:00,89.6,52.0,29.93,NNE,22,0.0,0.0,28,0.00,,,0.00,open2300-1.11,2011-08-03 22:13:00,
2011-08-03 16:23:00,89.2,51.7,29.93,NW,315,1.8,1.8,28,0.00,,,0.00,open2300-1.11,2011-08-03 22:23:00,
2011-08-03 16:33:00,88.3,50.9,29.93,West,270,0.0,2.5,28,0.00,,,0.00,open2300-1.11,2011-08-03 22:33:00,
2011-08-03 16:43:00,88.2,50.7,29.93,West,270,0.0,0.0,28,0.00,,,0.00,open2300-1.11,2011-08-03 22:43:00,
2011-08-03 16:53:00,88.3,50.9,29.92,NW,315,0.0,0.0,28,0.00,,,0.00,open2300-1.11,2011-08-03 22:53:00,
2011-08-03 17:03:00,89.6,49.8,29.92,West,270,0.0,0.0,26,0.00,,,0.00,open2300-1.11,2011-08-03 23:03:00,
2011-08-03 17:13:00,89.4,47.5,29.91,SW,225,0.0,0.0,24,0.00,,,0.00,open2300-1.11,2011-08-03 23:13:00,
2011-08-03 17:23:00,89.4,49.7,29.91,WSW,247,0.0,0.0,26,0.00,,,0.00,open2300-1.11,2011-08-03 23:23:00,
2011-08-03 17:33:00,89.4,48.6,29.91,WNW,292,0.0,0.0,25,0.00,,,0.00,open2300-1.11,2011-08-03 23:33:00,
2011-08-03 17:43:00,89.2,48.4,29.91,NW,315,0.0,1.1,25,0.00,,,0.00,open2300-1.11,2011-08-03 23:43:00,
2011-08-03 17:53:00,88.9,48.1,29.91,NW,315,0.0,2.0,25,0.00,,,0.00,open2300-1.11,2011-08-03 23:53:00,
2011-08-03 18:03:00,88.5,47.8,29.91,WSW,247,0.0,0.0,25,0.00,,,0.00,open2300-1.11,2011-08-04 00:03:00,
2011-08-03 18:13:00,88.0,47.3,29.91,West,270,0.0,0.0,25,0.00,,,0.00,open2300-1.11,2011-08-04 00:13:00,
2011-08-03 18:23:00,87.4,48.0,29.91,WNW,292,0.0,0.0,26,0.00,,,0.00,open2300-1.11,2011-08-04 00:23:00,
2011-08-03 18:33:00,86.9,48.6,29.91,NW,315,0.0,1.1,27,0.00,,,0.00,open2300-1.11,2011-08-04 00:33:00,
2011-08-03 18:43:00,86.5,49.3,29.91,NW,315,0.0,0.0,28,0.00,,,0.00,open2300-1.11,2011-08-04 00:43:00,
2011-08-03 18:53:00,86.2,49.1,29.91,NW,315,0.0,0.0,28,0.00,,,0.00,open2300-1.11,2011-08-04 00:53:00,
2011-08-03 19:03:00,85.3,49.3,29.91,NW,315,0.0,0.0,29,0.00,,,0.00,open2300-1.11,2011-08-04 01:03:00,
2011-08-03 19:13:00,84.6,51.4,29.93,NE,45,0.0,4.7,32,0.00,,,0.00,open2300-1.11,2011-08-04 01:13:00,
2011-08-03 19:23:00,83.1,51.7,29.94,NNE,22,0.0,0.7,34,0.00,,,0.00,open2300-1.11,2011-08-04 01:23:00,
2011-08-03 19:33:00,81.7,51.2,29.95,WNW,292,8.3,8.3,35,0.00,,,0.00,open2300-1.11,2011-08-04 01:33:00,
2011-08-03 19:43:00,80.4,50.9,29.96,NE,45,0.0,8.3,36,0.00,,,0.00,open2300-1.11,2011-08-04 01:43:00,
2011-08-03 19:53:00,79.7,51.0,29.97,NW,315,0.0,9.2,37,0.00,,,0.00,open2300-1.11,2011-08-04 01:53:00,
2011-08-03 20:03:00,79.0,50.4,29.98,NNE,22,0.0,1.8,37,0.00,,,0.00,open2300-1.11,2011-08-04 02:03:00,
2011-08-03 20:13:00,78.4,49.9,29.99,ENE,67,0.0,5.6,37,0.00,,,0.00,open2300-1.11,2011-08-04 02:13:00,
2011-08-03 20:23:00,78.3,50.5,30.00,WNW,292,0.7,4.5,38,0.00,,,0.00,open2300-1.11,2011-08-04 02:23:00,
2011-08-03 20:33:00,77.9,50.2,30.01,WSW,247,0.0,3.4,38,0.00,,,0.00,open2300-1.11,2011-08-04 02:33:00,
2011-08-03 20:43:00,77.5,49.9,30.02,WSW,247,2.5,2.5,38,0.00,,,0.00,open2300-1.11,2011-08-04 02:43:00,
2011-08-03 20:53:00,77.5,49.9,30.03,NNW,337,0.0,4.0,38,0.00,,,0.00,open2300-1.11,2011-08-04 02:53:00,
2011-08-03 21:03:00,77.4,50.5,30.03,NW,315,0.0,0.0,39,0.00,,,0.00,open2300-1.11,2011-08-04 03:03:00,
2011-08-03 21:13:00,77.2,51.1,30.04,NNE,22,0.0,4.5,40,0.00,,,0.00,open2300-1.11,2011-08-04 03:13:00,
2011-08-03 21:23:00,76.8,52.0,30.04,WNW,292,0.0,0.0,42,0.00,,,0.00,open2300-1.11,2011-08-04 03:23:00,
2011-08-03 21:33:00,76.1,53.2,30.06,NNW,337,0.0,1.3,45,0.00,,,0.00,open2300-1.11,2011-08-04 03:33:00,
2011-08-03 21:43:00,75.4,53.7,30.07,WNW,292,0.0,0.0,47,0.00,,,0.00,open2300-1.11,2011-08-04 03:43:00,
2011-08-03 21:53:00,75.0,54.6,30.08,West,270,0.0,0.0,49,0.00,,,0.00,open2300-1.11,2011-08-04 03:53:00,
2011-08-03 22:03:00,73.8,55.0,30.08,WSW,247,0.0,4.5,52,0.00,,,0.00,open2300-1.11,2011-08-04 04:03:00,
2011-08-03 22:13:00,72.5,55.3,30.07,West,270,0.0,0.0,55,0.00,,,0.00,open2300-1.11,2011-08-04 04:13:00,
2011-08-03 22:23:00,72.0,56.0,30.07,NNW,337,0.0,0.0,57,0.02,,,0.02,open2300-1.11,2011-08-04 04:23:00,
2011-08-03 22:33:00,71.4,55.8,30.07,WNW,292,0.0,0.0,58,0.02,,,0.02,open2300-1.11,2011-08-04 04:33:00,
2011-08-03 22:43:00,71.4,57.3,30.07,WNW,292,0.0,0.0,61,0.02,,,0.02,open2300-1.11,2011-08-04 04:43:00,
2011-08-03 22:53:00,70.9,57.2,30.07,WNW,292,0.0,0.0,62,0.02,,,0.02,open2300-1.11,2011-08-04 04:53:00,
2011-08-03 23:03:00,70.7,57.5,30.06,WNW,292,0.0,0.0,63,0.04,,,0.04,open2300-1.11,2011-08-04 05:03:00,
2011-08-03 23:13:00,70.3,58.0,30.06,WNW,292,0.0,0.0,65,0.04,,,0.04,open2300-1.11,2011-08-04 05:13:00,
2011-08-03 23:23:00,69.8,57.9,30.05,ENE,67,3.6,5.4,66,0.02,,,0.04,open2300-1.11,2011-08-04 05:23:00,
2011-08-03 23:33:00,69.3,57.8,30.02,ENE,67,9.8,9.8,67,0.02,,,0.04,open2300-1.11,2011-08-04 05:33:00,
2011-08-03 23:43:00,68.2,57.2,30.04,SSE,157,0.0,9.8,68,0.04,,,0.06,open2300-1.11,2011-08-04 05:43:00,
2011-08-03 23:53:00,67.8,57.3,30.03,ENE,67,4.0,4.0,69,0.04,,,0.06,open2300-1.11,2011-08-04 05:53:00,